Regional Weather Roundup
Issued by NWS Bismarck, ND

Home | Current Version | Previous Version | Text Only | Print | Product List | Glossary On
Versions: 1 2 3 4 5 6 7 8 9 10 11 12 13 14 15 16 17 18 19 20 21 22 23 24 25 26 27 28 29 30 31 32 33 34 35 36 37 38 39 40 41 42 43 44 45 46 47 48 49 50
221
ASUS43 KBIS 270010
RWRBIS

NWR BROADCAST TEXT
NATIONAL WEATHER SERVICE BISMARCK ND
700 PM CDT WED JUL 26 2017

NOTE: "FAIR" INDICATES FEW OR NO CLOUDS BELOW 12,000 FEET WITH NO
SIGNIFICANT WEATHER AND/OR OBSTRUCTIONS TO VISIBILITY.


CITY           SKY/WX    TMP DP  RH WIND       PRES   REMARKS
WILLISTON      SUNNY     90  46  21 NE6       30.06F
MINOT          SUNNY     84  52  33 NE9       30.10S
MINOT AFB      SUNNY     82  50  33 N5        30.09S
BISMARCK       SUNNY     84  48  28 NE8       30.09S
DICKINSON      SUNNY     88  52  29 E12       30.07F
GARRISON         N/A     82  51  34 E7        30.10F
HETTINGER ARPT MOSUNNY   88  49  25 SE12      30.11F
JAMESTOWN      SUNNY     81  57  43 N9        30.09S
HAZEN          FAIR      84  48  28 NE10      30.11S
LINTON           N/A    N/A N/A N/A NE7       30.11S
MANDAN         FAIR      82  50  32 NE7       30.10S
STANLEY        FAIR      81  50  34 VRB5      30.14S
TIOGA          FAIR      82  48  30 E13       30.11F
WATFORD CITY   FAIR      88  50  27 E13G20    30.07S
$$

CITY           SKY/WX    TMP DP  RH WIND       PRES   REMARKS
GRAND FORKS    MOSUNNY   81  60  48 N10       30.05S
GRAND FORKS AF SUNNY     79  59  50 N9        30.07S
DEVILS LAKE    SUNNY     78  57  48 NE9       30.11S
FARGO          SUNNY     81  59  47 N15       30.05R
CAVALIER       FAIR      79  57  47 N7        30.06R
GRAFTON        FAIR      79  61  53 NW7       30.08R
GWINNER        CLEAR     79  61  53 N8        30.07S
LANGDON        FAIR      77  59  53 N6        30.11S
ROLLA            N/A     77  57  50 NW6       30.13S
$$

CITY           SKY/WX    TMP DP  RH WIND       PRES   REMARKS
ABERDEEN       SUNNY     83  59  44 NE9       30.07S
MOBRIDGE       SUNNY     86  59  39 NE8       30.07S
BUFFALO          N/A     89  49  25 S12       30.04F
RAPID CITY     CLOUDY    84  51  31 SE8       30.13F
GLASGOW        SUNNY     91  43  18 NE6       30.00F
SIDNEY         SUNNY     89  52  28 NE14      30.03F
WOLF POINT     MOSUNNY   92  45  19 E14       30.02S
GLENDIVE       SUNNY     91  48  22 E7        30.04F
MILES CITY     SUNNY     93  43  17 SE8       30.01F
BAKER          MOSUNNY   91  45  20 S14       30.08S
$$

CITY           SKY/WX    TMP DP  RH WIND       PRES   REMARKS
BILLINGS       CLOUDY    89  42  19 E7        30.05S
GREAT FALLS    MOSUNNY   92  35  13 E8        30.01F
REGINA         MOSUNNY   82  46  28 W6        30.08F
ESTEVAN        MOSUNNY   81  52  36 N9        30.10F
$$





USA.gov is the U.S. government's official web portal to all federal, state and local government web resources and services.